When you browse on this site, cookies collect data to enhance your experience and personalize the content and advertising you see.
Visit our Privacy Policy to learn more. By continuing to use the site, you agree to this use of cookies and data.
  • In Belgien
  • Länderverzeichnis
  • Für 7 Tage
  • Wassertemperatur
  • Wetterkarte
  • Widgets
  • user-avatar
    Anmelden

    Stündliche Wetter Kaposvár

    Heute, 3 April, Freitag

    Zeit Temperatur Niederschläge Wind Luftdruck Luftfeuchtigkeit
    00:00 +4°C° 0 mm 1 m/S 744 mmHg 77%
    01:00 +3°C° 0 mm 1 m/S 744 mmHg 78%
    02:00 +3°C° 0 mm 1 m/S 744 mmHg 80%
    03:00 +3°C° 0 mm 1 m/S 744 mmHg 82%
    04:00 +2°C° 0 mm 1 m/S 744 mmHg 83%
    05:00 +3°C° 0 mm 1 m/S 744 mmHg 81%
    06:00 +4°C° 0 mm 1 m/S 745 mmHg 78%
    07:00 +5°C° 0 mm 1 m/S 745 mmHg 75%
    08:00 +7°C° 0 mm 1 m/S 745 mmHg 66%
    09:00 +9°C° 0 mm 1 m/S 745 mmHg 57%
    10:00 +12°C° 0 mm 1 m/S 746 mmHg 48%
    11:00 +13°C° 0 mm 2 m/S 746 mmHg 45%
    12:00 +14°C° 0 mm 2 m/S 746 mmHg 42%
    13:00 +14°C° 0 mm 3 m/S 746 mmHg 39%
    14:00 +14°C° 0 mm 3 m/S 745 mmHg 39%
    15:00 +14°C° 0 mm 3 m/S 745 mmHg 40%
    16:00 +14°C° 0 mm 3 m/S 745 mmHg 40%
    17:00 +12°C° 0 mm 3 m/S 745 mmHg 46%
    18:00 +12°C° 0 mm 2 m/S 746 mmHg 52%
    19:00 +9°C° 0 mm 2 m/S 746 mmHg 58%
    20:00 +8°C° 0 mm 2 m/S 747 mmHg 60%
    21:00 +8°C° 0 mm 2 m/S 747 mmHg 61%
    22:00 +8°C° 0 mm 1 m/S 748 mmHg 63%
    23:00 +8°C° 0 mm 1 m/S 748 mmHg 65%

    Morgen, 4 April, Samstag

    Zeit Temperatur Niederschläge Wind Luftdruck Luftfeuchtigkeit
    00:00 +8°C° 0 mm 1 m/S 749 mmHg 66%
    01:00 +7°C° 0 mm 1 m/S 749 mmHg 68%
    02:00 +7°C° 0 mm 1 m/S 749 mmHg 69%
    03:00 +7°C° 0 mm 1 m/S 750 mmHg 71%
    04:00 +5°C° 0 mm 2 m/S 750 mmHg 73%
    05:00 +6°C° 0 mm 2 m/S 750 mmHg 72%
    06:00 +7°C° 0 mm 2 m/S 751 mmHg 71%
    07:00 +7°C° 0 mm 2 m/S 751 mmHg 71%
    08:00 +9°C° 0 mm 3 m/S 752 mmHg 63%
    09:00 +11°C° 0 mm 4 m/S 752 mmHg 56%
    10:00 +12°C° 0 mm 5 m/S 752 mmHg 49%
    11:00 +13°C° 0 mm 5 m/S 752 mmHg 47%
    12:00 +14°C° 0 mm 5 m/S 752 mmHg 45%
    13:00 +14°C° 0 mm 5 m/S 752 mmHg 43%
    14:00 +14°C° 0 mm 5 m/S 752 mmHg 43%
    15:00 +14°C° 0 mm 5 m/S 752 mmHg 44%
    16:00 +14°C° 0 mm 5 m/S 752 mmHg 44%
    17:00 +12°C° 0 mm 4 m/S 752 mmHg 49%
    18:00 +10°C° 0 mm 4 m/S 753 mmHg 54%
    19:00 +9°C° 0 mm 3 m/S 753 mmHg 59%
    20:00 +8°C° 0 mm 3 m/S 754 mmHg 63%
    21:00 +7°C° 0 mm 3 m/S 754 mmHg 66%
    22:00 +7°C° 0 mm 3 m/S 755 mmHg 69%
    23:00 +5°C° 0 mm 3 m/S 755 mmHg 71%

    übermorgen, 5 April, Sonntag

    Zeit Temperatur Niederschläge Wind Luftdruck Luftfeuchtigkeit
    00:00 +5°C° 0 mm 3 m/S 756 mmHg 73%
    01:00 +4°C° 0 mm 3 m/S 756 mmHg 75%
    02:00 +4°C° 0 mm 3 m/S 756 mmHg 73%
    03:00 +3°C° 0 mm 3 m/S 757 mmHg 72%
    04:00 +3°C° 0 mm 3 m/S 757 mmHg 70%
    05:00 +3°C° 0 mm 4 m/S 757 mmHg 65%
    06:00 +4°C° 0 mm 4 m/S 757 mmHg 61%
    07:00 +5°C° 0 mm 5 m/S 758 mmHg 56%
    08:00 +6°C° 0 mm 5 m/S 758 mmHg 51%
    09:00 +8°C° 0 mm 5 m/S 758 mmHg 47%
    10:00 +10°C° 0 mm 5 m/S 758 mmHg 42%
    11:00 +10°C° 0 mm 5 m/S 758 mmHg 41%
    12:00 +12°C° 0 mm 5 m/S 758 mmHg 40%
    13:00 +13°C° 0 mm 5 m/S 757 mmHg 38%
    14:00 +13°C° 0 mm 4 m/S 757 mmHg 41%
    15:00 +14°C° 0 mm 4 m/S 757 mmHg 44%
    16:00 +14°C° 0 mm 4 m/S 756 mmHg 46%
    17:00 +12°C° 0 mm 3 m/S 756 mmHg 54%
    18:00 +10°C° 0 mm 3 m/S 757 mmHg 62%
    19:00 +9°C° 0 mm 2 m/S 757 mmHg 70%
    20:00 +8°C° 0 mm 2 m/S 757 mmHg 73%
    21:00 +8°C° 0 mm 2 m/S 758 mmHg 76%
    22:00 +7°C° 0 mm 2 m/S 758 mmHg 79%
    23:00 +7°C° 0 mm 2 m/S 758 mmHg 80%

    6 April, Montag

    Zeit Temperatur Niederschläge Wind Luftdruck Luftfeuchtigkeit
    00:00 +7°C° 0 mm 2 m/S 758 mmHg 82%
    01:00 +6°C° 0 mm 2 m/S 758 mmHg 83%
    02:00 +6°C° 0 mm 2 m/S 758 mmHg 81%
    03:00 +6°C° 0 mm 2 m/S 758 mmHg 79%
    04:00 +6°C° 0 mm 2 m/S 759 mmHg 77%
    05:00 +7°C° 0 mm 3 m/S 759 mmHg 70%
    06:00 +6°C° 0 mm 4 m/S 759 mmHg 63%
    07:00 +7°C° 0 mm 5 m/S 760 mmHg 56%
    08:00 +8°C° 0 mm 6 m/S 760 mmHg 50%
    09:00 +9°C° 0 mm 6 m/S 760 mmHg 44%
    10:00 +11°C° 0 mm 7 m/S 760 mmHg 38%
    11:00 +11°C° 0 mm 7 m/S 760 mmHg 36%
    12:00 +12°C° 0 mm 8 m/S 760 mmHg 33%
    13:00 +13°C° 0 mm 8 m/S 760 mmHg 31%
    14:00 +13°C° 0 mm 8 m/S 759 mmHg 32%
    15:00 +12°C° 0 mm 8 m/S 759 mmHg 33%
    16:00 +12°C° 0 mm 7 m/S 759 mmHg 33%
    17:00 +10°C° 0 mm 6 m/S 759 mmHg 36%
    18:00 +9°C° 0 mm 5 m/S 759 mmHg 39%
    19:00 +7°C° 0 mm 4 m/S 759 mmHg 42%
    20:00 +6°C° 0 mm 4 m/S 759 mmHg 42%
    21:00 +6°C° 0 mm 4 m/S 760 mmHg 42%
    22:00 +5°C° 0 mm 5 m/S 760 mmHg 42%
    23:00 +5°C° 0 mm 4 m/S 760 mmHg 43%

    7 April, Dienstag

    Zeit Temperatur Niederschläge Wind Luftdruck Luftfeuchtigkeit
    00:00 +4°C° 0 mm 4 m/S 760 mmHg 45%
    01:00 +4°C° 0 mm 4 m/S 760 mmHg 46%
    02:00 +3°C° 0 mm 4 m/S 760 mmHg 49%
    03:00 +3°C° 0 mm 4 m/S 760 mmHg 52%
    04:00 +2°C° 0 mm 3 m/S 760 mmHg 54%
    05:00 +3°C° 0 mm 4 m/S 760 mmHg 52%
    06:00 +4°C° 0 mm 4 m/S 761 mmHg 50%
    07:00 +3°C° 0 mm 5 m/S 761 mmHg 48%
    08:00 +6°C° 0 mm 5 m/S 761 mmHg 44%
    09:00 +8°C° 0 mm 5 m/S 761 mmHg 41%
    10:00 +10°C° 0 mm 5 m/S 761 mmHg 38%
    11:00 +12°C° 0 mm 5 m/S 761 mmHg 37%
    12:00 +13°C° 0 mm 5 m/S 761 mmHg 36%
    13:00 +14°C° 0 mm 5 m/S 761 mmHg 35%
    14:00 +14°C° 0 mm 5 m/S 761 mmHg 36%
    15:00 +14°C° 0 mm 5 m/S 760 mmHg 37%
    16:00 +14°C° 0 mm 5 m/S 760 mmHg 38%
    17:00 +12°C° 0 mm 4 m/S 760 mmHg 43%
    18:00 +11°C° 0 mm 3 m/S 760 mmHg 49%
    19:00 +9°C° 0 mm 2 m/S 760 mmHg 55%
    20:00 +8°C° 0 mm 2 m/S 760 mmHg 57%
    21:00 +7°C° 0 mm 2 m/S 761 mmHg 59%
    22:00 +6°C° 0 mm 2 m/S 761 mmHg 61%
    23:00 +6°C° 0 mm 2 m/S 761 mmHg 61%

    8 April, Mittwoch

    Zeit Temperatur Niederschläge Wind Luftdruck Luftfeuchtigkeit
    00:00 +6°C° 0 mm 2 m/S 761 mmHg 61%
    01:00 +6°C° 0 mm 1 m/S 761 mmHg 62%
    02:00 +6°C° 0 mm 1 m/S 761 mmHg 62%
    03:00 +5°C° 0 mm 2 m/S 761 mmHg 62%
    04:00 +4°C° 0 mm 2 m/S 761 mmHg 62%
    05:00 +5°C° 0 mm 2 m/S 761 mmHg 60%
    06:00 +6°C° 0 mm 2 m/S 761 mmHg 57%
    07:00 +7°C° 0 mm 2 m/S 761 mmHg 55%
    08:00 +9°C° 0 mm 2 m/S 761 mmHg 50%
    09:00 +11°C° 0 mm 3 m/S 761 mmHg 44%
    10:00 +13°C° 0 mm 3 m/S 761 mmHg 39%
    11:00 +14°C° 0 mm 3 m/S 761 mmHg 38%
    12:00 +16°C° 0 mm 3 m/S 760 mmHg 37%
    13:00 +17°C° 0 mm 3 m/S 760 mmHg 36%
    14:00 +17°C° 0 mm 3 m/S 759 mmHg 37%
    15:00 +17°C° 0 mm 3 m/S 759 mmHg 38%
    16:00 +17°C° 0 mm 2 m/S 758 mmHg 39%
    17:00 +15°C° 0 mm 2 m/S 758 mmHg 44%
    18:00 +14°C° 0 mm 1 m/S 758 mmHg 50%
    19:00 +12°C° 0 mm 1 m/S 758 mmHg 56%
    20:00 +11°C° 0 mm 1 m/S 758 mmHg 57%
    21:00 +10°C° 0 mm 1 m/S 758 mmHg 58%
    22:00 +10°C° 0 mm 1 m/S 758 mmHg 59%
    23:00 +9°C° 0 mm 1 m/S 758 mmHg 61%
    Mehr zeigen